Osceola Municipal, IA

8:29 PM CDT on September 25, 2017 (GMT -0500)
Osceola Municipal

Weather History for KI75 - May, 2013

Change the Weather History Date:

Wednesday, May 1, 2013

  Actual Average (KCNC) Record (KCNC)
Temperature  
Mean Temperature 53 °F -  
Max Temperature 62 °F 68 °F 89 °F (1965)
Min Temperature 40 °F 43 °F 26 °F (1950)
Degree Days  
Heating Degree Days 12    
Growing Degree Days 3 (Base 50)    
Moisture  
Dew Point 41 °F    
Average Humidity 65    
Maximum Humidity 78    
Minimum Humidity 50    
Precipitation  
Precipitation 0.00 in - - ()
Sea Level Pressure  
Sea Level Pressure 30.09 in    
Wind  
Wind Speed 13 mph (North)    
Max Wind Speed 29 mph    
Max Gust Speed 44 mph    
Visibility 10 miles    
Events      
Averages and records for this station are not official NWS values.
T = Trace of Precipitation, MM = Missing Value Source: NWS Daily Summary

Daily Weather History Graph

Daily Weather History Graph

Search for Another Location

Airport or City:

Trip Planner

Search our weather history database for the weather conditions in past years. The results will help you decide how hot, cold, wet, or windy it might be!

Date:

Astronomy

May. 01, 2013 Rise Set
Actual Time 6:12 AM CDT 8:11 PM CDT
Civil Twilight 5:42 AM CDT 8:41 PM CDT
Nautical Twilight 5:05 AM CDT 9:18 PM CDT
Astronomical Twilight 4:26 AM CDT 9:58 PM CDT
Moon 1:22 AM CDT (5/1) 11:51 AM CDT (5/1)
Length of Visible Light 14h 59m
Length of Day
13h 59m
Waning Gibbous, 59% of the Moon is Illuminated
May 1
Waning Gibbous
May 2
Last Quarter
May 9
New
May 17
First Quarter
May 24
Full

Hourly Weather History & Observations

Time (CDT) Temp. Windchill Dew Point Humidity Pressure Visibility Wind Dir Wind Speed Gust Speed Precip Events Conditions
12:15 AM 66.0 °F - 50.0 °F 56% 29.85 in 10.0 mi Calm Calm - N/A   Overcast
12:35 AM 64.2 °F - 50.5 °F 61% 29.86 in 10.0 mi North 5.8 mph - N/A   Overcast
12:55 AM 62.6 °F - 48.4 °F 60% 29.87 in 10.0 mi NNW 9.2 mph - N/A   Overcast
1:15 AM 60.3 °F - 46.4 °F 60% 29.88 in 10.0 mi North 10.4 mph - N/A   Mostly Cloudy
1:35 AM 59.0 °F - 45.9 °F 62% 29.90 in 10.0 mi North 8.1 mph - N/A   Mostly Cloudy
1:55 AM 58.1 °F - 46.4 °F 65% 29.91 in 10.0 mi North 11.5 mph - N/A   Overcast
2:15 AM 57.4 °F - 45.5 °F 65% 29.91 in 10.0 mi North 9.2 mph - N/A   Scattered Clouds
2:35 AM 57.2 °F - 44.6 °F 63% 29.91 in 10.0 mi North 9.2 mph - N/A   Clear
2:55 AM 56.3 °F - 44.6 °F 65% 29.92 in 10.0 mi North 9.2 mph - N/A   Scattered Clouds
3:15 AM 55.6 °F - 44.1 °F 65% 29.94 in 10.0 mi North 10.4 mph 16.1 mph N/A   Mostly Cloudy
3:35 AM 54.7 °F - 43.7 °F 66% 29.95 in 10.0 mi North 9.2 mph - N/A   Scattered Clouds
3:55 AM 54.0 °F - 43.9 °F 69% 29.97 in 10.0 mi North 11.5 mph - N/A   Clear
4:15 AM 53.6 °F - 44.6 °F 72% 29.97 in 10.0 mi North 11.5 mph 17.3 mph N/A   Clear
4:35 AM 53.6 °F - 44.6 °F 72% 29.98 in 10.0 mi North 12.7 mph 17.3 mph N/A   Clear
4:55 AM 53.1 °F - 43.5 °F 70% 29.98 in 10.0 mi North 15.0 mph 21.9 mph N/A   Clear
5:15 AM 52.7 °F - 42.8 °F 69% 29.99 in 10.0 mi North 12.7 mph 20.7 mph N/A   Clear
5:35 AM 51.8 °F - 42.8 °F 71% 30.01 in 10.0 mi North 9.2 mph - N/A   Clear
5:55 AM 51.6 °F - 43.0 °F 72% 30.02 in 10.0 mi North 10.4 mph 16.1 mph N/A   Clear
6:15 AM 51.4 °F - 43.7 °F 75% 30.02 in 10.0 mi North 16.1 mph 24.2 mph N/A   Scattered Clouds
6:35 AM 51.3 °F - 43.3 °F 74% 30.03 in 10.0 mi North 10.4 mph 23.0 mph N/A   Scattered Clouds
6:55 AM 51.4 °F - 40.8 °F 67% 30.05 in 10.0 mi North 17.3 mph 25.3 mph N/A   Clear
7:15 AM 51.8 °F - 40.1 °F 64% 30.06 in 10.0 mi North 25.3 mph - N/A   Clear
7:35 AM 52.0 °F - 39.4 °F 62% 30.07 in 10.0 mi North 21.9 mph 31.1 mph N/A   Scattered Clouds
8:15 AM 53.2 °F - 41.0 °F 63% 30.06 in 10.0 mi NNE 18.4 mph 25.3 mph N/A   Scattered Clouds
8:35 AM 54.0 °F - 41.4 °F 62% 30.07 in 10.0 mi NNE 16.1 mph 23.0 mph N/A   Clear
8:55 AM 55.0 °F - 42.1 °F 62% 30.08 in 10.0 mi North 18.4 mph 23.0 mph N/A   Scattered Clouds
9:15 AM 54.9 °F - 42.1 °F 62% 30.08 in 10.0 mi North 16.1 mph 24.2 mph N/A   Scattered Clouds
9:35 AM 56.7 °F - 42.6 °F 59% 30.09 in 10.0 mi NNE 15.0 mph 21.9 mph N/A   Mostly Cloudy
9:55 AM 55.4 °F - 42.1 °F 61% 30.09 in 10.0 mi North 15.0 mph 21.9 mph N/A   Mostly Cloudy
10:15 AM 54.7 °F - 41.9 °F 62% 30.09 in 10.0 mi North 15.0 mph - N/A   Overcast
10:35 AM 56.8 °F - 42.8 °F 59% 30.10 in 10.0 mi North 17.3 mph 24.2 mph N/A   Overcast
10:55 AM 56.1 °F - 42.3 °F 60% 30.10 in 10.0 mi North 19.6 mph 26.5 mph N/A   Overcast
11:15 AM 57.4 °F - 42.1 °F 57% 30.11 in 10.0 mi NNE 16.1 mph 24.2 mph N/A   Overcast
11:35 AM 58.1 °F - 42.1 °F 55% 30.11 in 10.0 mi North 19.6 mph 27.6 mph N/A   Overcast
11:55 AM 57.9 °F - 41.7 °F 55% 30.12 in 10.0 mi North 15.0 mph 24.2 mph N/A   Overcast
12:15 PM 58.1 °F - 41.7 °F 54% 30.12 in 10.0 mi North 11.5 mph 21.9 mph N/A   Overcast
12:35 PM 59.2 °F - 42.1 °F 53% 30.12 in 10.0 mi North 18.4 mph 26.5 mph N/A   Overcast
12:55 PM 60.4 °F - 41.9 °F 50% 30.12 in 10.0 mi North 17.3 mph 26.5 mph N/A   Overcast
1:15 PM 60.8 °F - 42.1 °F 50% 30.12 in 10.0 mi NNE 17.3 mph 25.3 mph N/A   Overcast
1:35 PM 60.1 °F - 43.0 °F 53% 30.12 in 10.0 mi North 17.3 mph - N/A   Overcast
1:55 PM 60.4 °F - 43.0 °F 53% 30.12 in 10.0 mi North 19.6 mph 24.2 mph N/A   Overcast
2:15 PM 60.3 °F - 42.6 °F 52% 30.13 in 10.0 mi North 18.4 mph 26.5 mph N/A   Overcast
2:35 PM 60.1 °F - 42.6 °F 53% 30.13 in 10.0 mi North 19.6 mph 25.3 mph N/A   Mostly Cloudy
2:55 PM 59.9 °F - 42.8 °F 53% 30.13 in 10.0 mi North 17.3 mph 25.3 mph N/A   Mostly Cloudy
3:15 PM 60.1 °F - 42.6 °F 53% 30.14 in 10.0 mi North 17.3 mph 25.3 mph N/A   Mostly Cloudy
3:35 PM 59.2 °F - 42.3 °F 53% 30.15 in 10.0 mi North 18.4 mph 26.5 mph N/A   Overcast
3:55 PM 57.6 °F - 42.1 °F 56% 30.15 in 10.0 mi North 20.7 mph 26.5 mph N/A   Overcast
4:15 PM 56.3 °F - 41.4 °F 57% 30.16 in 10.0 mi North 20.7 mph 28.8 mph N/A   Overcast
4:35 PM 54.5 °F - 40.8 °F 60% 30.16 in 10.0 mi North 21.9 mph 31.1 mph N/A   Overcast
4:55 PM 53.8 °F - 40.8 °F 62% 30.16 in 10.0 mi NNW 23.0 mph 28.8 mph N/A   Overcast
5:15 PM 51.1 °F - 40.1 °F 66% 30.17 in 10.0 mi NNW 23.0 mph 31.1 mph N/A   Overcast
5:35 PM 47.7 °F - 38.5 °F 70% 30.17 in 10.0 mi North 24.2 mph 32.2 mph N/A   Mostly Cloudy
5:55 PM 44.8 °F 35.7 °F 37.4 °F 75% 30.18 in 10.0 mi NNW 25.3 mph 32.2 mph N/A   Overcast
6:15 PM 44.8 °F 35.5 °F 37.4 °F 75% 30.18 in 10.0 mi North 26.5 mph 34.5 mph N/A   Overcast
6:35 PM 43.9 °F 34.7 °F 36.9 °F 76% 30.19 in 10.0 mi North 24.2 mph 32.2 mph N/A   Overcast
6:55 PM 43.7 °F 35.4 °F 36.5 °F 76% 30.19 in 10.0 mi North 19.6 mph 32.2 mph N/A   Overcast
7:15 PM 42.4 °F 33.8 °F 35.6 °F 77% 30.20 in 10.0 mi North 19.6 mph 28.8 mph N/A   Overcast
7:35 PM 42.3 °F 33.3 °F 35.4 °F 77% 30.20 in 10.0 mi North 20.7 mph 28.8 mph N/A   Overcast
7:55 PM 41.5 °F 31.0 °F 34.2 °F 75% 30.21 in 10.0 mi North 27.6 mph 39.1 mph N/A   Overcast
8:35 PM 41.5 °F 32.1 °F 33.8 °F 74% 30.22 in 10.0 mi North 21.9 mph 33.4 mph N/A   Overcast
8:55 PM 41.5 °F 32.4 °F 34.0 °F 75% 30.22 in 10.0 mi North 20.7 mph 32.2 mph N/A   Overcast
9:35 PM 40.8 °F 30.9 °F 34.2 °F 77% 30.23 in 10.0 mi North 23.0 mph 35.7 mph N/A   Overcast
9:55 PM 40.3 °F 30.4 °F 34.0 °F 78% 30.24 in 10.0 mi North 21.9 mph 34.5 mph N/A   Overcast
10:15 PM 40.3 °F 29.9 °F 33.8 °F 78% 30.25 in 10.0 mi North 24.2 mph 32.2 mph N/A   Overcast
10:35 PM 40.5 °F 30.0 °F 33.8 °F 77% 30.26 in 10.0 mi North 25.3 mph 32.2 mph N/A   Overcast
10:55 PM 40.5 °F 29.3 °F 33.8 °F 77% 30.25 in 10.0 mi North 28.8 mph 41.4 mph N/A   Overcast
11:15 PM 40.3 °F 29.5 °F 33.8 °F 78% 30.26 in 10.0 mi North 26.5 mph 36.8 mph N/A   Overcast
11:35 PM 40.1 °F 29.7 °F 33.8 °F 78% 30.24 in 10.0 mi North 24.2 mph 38.0 mph N/A   Overcast
11:55 PM 40.1 °F 30.7 °F 33.8 °F 78% 30.25 in 10.0 mi North 19.6 mph 43.7 mph N/A   Overcast